Showing default

YAOGAN-32 2B, 49384

Orbit data source: Space-Track

YAOGAN-32 2B, 49384 is a payload satellite owned by PLA SSF (CN) in SSO that was launched on Wed, 03 Nov 2021 UTC via a CHANG ZHENG 2C/YZ-1S launch vehicle from the Jiuquan Satellite Launch Center, China (JSC). Payload-class satellites include a variety of spacecraft equipped with specific instruments for various scientific and technological missions. These include communications satellites like Starlink; space stations such as the ISS; scientific satellites like the Hubble; Earth observation satellites from companies like Planet Labs, Umbra, and HawkEye 360; GPS; miniature CubeSats for education and research; and military/defense satellites.

Loading next visibility...
Identifier
49384, 2021-099B
Orbit
SSO
Country
Flag of CNCN / PRC
Related business
Manufacturer
SECM?
Mission
Operational Defense Sigint
Bus & Motor
Unknown
Mass
~500 kg wet, ~500 kg dry
Launch date (UTC)
2021-11-03 (5 years ago)
Launch vehicle
CHANG ZHENG 2C/YZ-1S
Launch site
Jiuquan Satellite Launch Center, China (JSC)
Object type
Payload
Rocket body
Debris
Shape & HBR
Box + 2 Pan, 0.5 m
Radar Cross Section
0.446 m², Large (>1 m²)

Expand to show TLE details & history
Last TLE update: 23 hours ago

TLE from 23 hours ago
0 YAOGAN-32 2B
1 49384U 21099B   26172.54371644  .00000504  00000-0  10491-3 0  9998
2 49384  98.2472 306.3671 0001048 117.4548 242.6761 14.64213236247004
Epoch: 2026-06-21T13:02Z
TLE epoch observation values (Epoch: 2026-06-21T13:02:57.100Z)
Latitude
-0.00001°
Longitude
-159.11329°
Altitude
682.932 km
Speed
7.515 km/s
True Right ascension
20h 25m 28s
True Declination
0° 00' 00"
Sunlit
Object was in full shadow at epoch
Visualization orbit readout
Latitude
Unknown
Longitude
Unknown
Altitude
Unknown
Speed
Unknown
Apparent Right ascension
Unknown
Apparent Declination
Unknown
Sunlit
N/A
Visualization observer readout
Local Sidereal Time
23:08:49
Azimuth
Unknown
Elevation
Unknown
Doppler factor
Unknown
Orbital elements
Apogee altitude
677.42 km
Perigee altitude
675.941 km
Semi-major axis
7,054.817 km
Eccentricity
0.0001
Inclination
98.2472°
RAAN
306.3671°
Arg. of periapsis
117.4548°
True anomaly
242.66543°
Mean anomaly
242.6761°
Eccentric anomaly
242.67077°
Mean motion
3.66281 °/min
Orbital period
98.29 mins
BSTAR
0.00010491
Loading maneuver chart data...
Computing Atmospheric mass density...
Loading historical data...
Loading historical data...
Loading historical data...
Loading historical data...
Loading historical data...
Loading historical data...
Loading historical data...
Other satellites on launch #99 in the year 2021 (2021-11-03 UTC)

Documentation

Showing up to 5 results
|